sat.trackr.live / text

‹ back to catalog

UNKNOWN

NORAD 81323

UNKNOWN UNKNOWN UNKNOWN

§ Identity

Operator
Country
Launch date
Launch site
Launch vehicle
Mass (kg)
RCS (m²)

External: N2YO · Heavens-Above

§ Orbital elements

Epoch: 2026-09-17T11:22:01.770240Z

Period
99.01 min
Inclination
65.7493°
Eccentricity
0.0309245
Mean motion
14.54352087 rev/d
Perigee alt
492.2 km
Apogee alt
930.7 km
Semi-major
7,089.6 km
B*
1.1839e-3
RAAN
323.5842°
Arg perigee
166.2653°
Mean anomaly
194.7113°
Rev number
15,350

§ Raw data

UNKNOWN1 81323U          26260.47363160  .00009479  00000+0  11839-2 0  99952 81323  65.7493 323.5842 0309245 166.2653 194.7113 14.54352087153501

JSON: /api/v1/satellites/81323 · /tle

For live sub-satellite position, see the globe view (requires WebGL).

§ Visibility from observer

Set your observer location to see the next 7 days of passes ≥ 10°. The values pass through the URL so the page stays shareable.

No JS? Fill the form by hand. The geolocation button needs JavaScript.